• In Hungary
  • List of Countries
  • For 7 days
  • Water Temperature
  • Satellite Maps
  • Weather Map
  • News
  • Weather Widgets
  • user-avatar
    Login

    Hourly Weather Staiky

    Today, 22 October, Sunday

    Time Temperature Precipitation Wind Pressure Humidity
    00:00 +7°C° 0.7 mm 4 mps 751 mmHg 67%
    01:00 +6°C° 0.7 mm 5 mps 751 mmHg 70%
    02:00 +6°C° 0.7 mm 5 mps 751 mmHg 72%
    03:00 +6°C° 0.7 mm 5 mps 751 mmHg 73%
    04:00 +5°C° 0.7 mm 5 mps 751 mmHg 75%
    05:00 +4°C° 0.7 mm 6 mps 751 mmHg 76%
    06:00 +4°C° 0.1 mm 6 mps 751 mmHg 75%
    07:00 +4°C° 0.1 mm 6 mps 752 mmHg 74%
    08:00 +4°C° 0.1 mm 6 mps 752 mmHg 73%
    09:00 +5°C° 0 mm 6 mps 753 mmHg 67%
    10:00 +7°C° 0 mm 6 mps 753 mmHg 61%
    11:00 +7°C° 0 mm 6 mps 753 mmHg 55%
    12:00 +8°C° 0 mm 6 mps 754 mmHg 52%
    13:00 +8°C° 0 mm 5 mps 754 mmHg 49%
    14:00 +8°C° 0 mm 5 mps 754 mmHg 46%
    15:00 +7°C° 0 mm 4 mps 754 mmHg 50%
    16:00 +6°C° 0 mm 4 mps 754 mmHg 54%
    17:00 +5°C° 0 mm 3 mps 755 mmHg 58%
    18:00 +4°C° 0 mm 3 mps 755 mmHg 61%
    19:00 +3°C° 0 mm 3 mps 755 mmHg 64%
    20:00 +2°C° 0 mm 3 mps 756 mmHg 67%
    21:00 +3°C° 0 mm 2 mps 756 mmHg 68%
    22:00 +3°C° 0 mm 2 mps 756 mmHg 70%
    23:00 +2°C° 0 mm 2 mps 757 mmHg 71%

    Tomorrow, 23 October, Monday

    Time Temperature Precipitation Wind Pressure Humidity
    00:00 +2°C° 0 mm 2 mps 757 mmHg 71%
    01:00 +2°C° 0 mm 2 mps 757 mmHg 72%
    02:00 +1°C° 0 mm 2 mps 757 mmHg 72%
    03:00 +1°C° 0 mm 2 mps 757 mmHg 72%
    04:00 +1°C° 0 mm 2 mps 757 mmHg 72%
    05:00 +1°C° 0 mm 2 mps 757 mmHg 72%
    06:00 +1°C° 0 mm 2 mps 757 mmHg 69%
    07:00 +2°C° 0 mm 2 mps 757 mmHg 66%
    08:00 +1°C° 0 mm 3 mps 757 mmHg 63%
    09:00 +3°C° 0 mm 3 mps 757 mmHg 56%
    10:00 +4°C° 0 mm 3 mps 757 mmHg 49%
    11:00 +7°C° 0 mm 3 mps 757 mmHg 42%
    12:00 +7°C° 0 mm 3 mps 757 mmHg 40%
    13:00 +8°C° 0 mm 3 mps 757 mmHg 37%
    14:00 +8°C° 0 mm 3 mps 756 mmHg 34%
    15:00 +7°C° 0 mm 3 mps 756 mmHg 37%
    16:00 +5°C° 0 mm 3 mps 756 mmHg 40%
    17:00 +4°C° 0 mm 3 mps 756 mmHg 42%
    18:00 +3°C° 0 mm 3 mps 756 mmHg 44%
    19:00 +3°C° 0 mm 3 mps 757 mmHg 45%
    20:00 +1°C° 0 mm 4 mps 757 mmHg 46%
    21:00 +1°C° 0 mm 4 mps 757 mmHg 48%
    22:00 +1°C° 0 mm 4 mps 757 mmHg 49%
    23:00 0°C° 0 mm 4 mps 757 mmHg 50%

    Day after tomorrow, 24 October, Tuesday

    Time Temperature Precipitation Wind Pressure Humidity
    00:00 0°C° 0 mm 4 mps 757 mmHg 51%
    01:00 0°C° 0 mm 4 mps 757 mmHg 53%
    02:00 0°C° 0 mm 4 mps 758 mmHg 54%
    03:00 0°C° 0 mm 4 mps 758 mmHg 54%
    04:00 0°C° 0 mm 5 mps 758 mmHg 54%
    05:00 0°C° 0 mm 5 mps 758 mmHg 54%
    06:00 0°C° 0 mm 5 mps 758 mmHg 52%
    07:00 +1°C° 0 mm 6 mps 758 mmHg 50%
    08:00 +1°C° 0 mm 6 mps 759 mmHg 49%
    09:00 +2°C° 0 mm 6 mps 759 mmHg 46%
    10:00 +4°C° 0 mm 6 mps 759 mmHg 43%
    11:00 +5°C° 0 mm 6 mps 759 mmHg 40%
    12:00 +5°C° 0 mm 6 mps 759 mmHg 39%
    13:00 +5°C° 0 mm 6 mps 759 mmHg 38%
    14:00 +7°C° 0 mm 6 mps 759 mmHg 37%
    15:00 +6°C° 0 mm 5 mps 759 mmHg 38%
    16:00 +6°C° 0 mm 5 mps 759 mmHg 39%
    17:00 +5°C° 0 mm 4 mps 760 mmHg 40%
    18:00 +5°C° 0 mm 5 mps 760 mmHg 40%
    19:00 +5°C° 0 mm 5 mps 760 mmHg 41%
    20:00 +5°C° 0 mm 5 mps 761 mmHg 41%
    21:00 +3°C° 0 mm 5 mps 761 mmHg 43%
    22:00 +3°C° 0 mm 5 mps 761 mmHg 44%
    23:00 +3°C° 0 mm 5 mps 761 mmHg 45%

    25 October, Wednesday

    Time Temperature Precipitation Wind Pressure Humidity
    00:00 +4°C° 0 mm 4 mps 761 mmHg 46%
    01:00 +4°C° 0 mm 4 mps 761 mmHg 48%
    02:00 +3°C° 0 mm 4 mps 761 mmHg 49%
    03:00 +3°C° 0 mm 4 mps 761 mmHg 50%
    04:00 +3°C° 0 mm 4 mps 761 mmHg 51%
    05:00 +3°C° 0 mm 4 mps 761 mmHg 53%
    06:00 +3°C° 0 mm 4 mps 761 mmHg 53%
    07:00 +3°C° 0 mm 4 mps 761 mmHg 53%
    08:00 +2°C° 0 mm 5 mps 762 mmHg 52%
    09:00 +4°C° 0 mm 4 mps 762 mmHg 51%
    10:00 +5°C° 0 mm 4 mps 762 mmHg 49%
    11:00 +6°C° 0 mm 4 mps 761 mmHg 48%
    12:00 +6°C° 0 mm 4 mps 761 mmHg 47%
    13:00 +7°C° 0 mm 4 mps 761 mmHg 46%
    14:00 +7°C° 0 mm 4 mps 761 mmHg 46%
    15:00 +7°C° 0 mm 3 mps 761 mmHg 50%
    16:00 +5°C° 0 mm 3 mps 761 mmHg 53%
    17:00 +5°C° 0 mm 2 mps 762 mmHg 57%
    18:00 +4°C° 0 mm 2 mps 762 mmHg 59%
    19:00 +4°C° 0 mm 2 mps 762 mmHg 62%
    20:00 +3°C° 0 mm 2 mps 762 mmHg 64%
    21:00 +3°C° 0 mm 2 mps 762 mmHg 67%
    22:00 +2°C° 0 mm 2 mps 762 mmHg 70%
    23:00 +2°C° 0 mm 2 mps 762 mmHg 72%

    26 October, Thursday

    Time Temperature Precipitation Wind Pressure Humidity
    00:00 +1°C° 0 mm 2 mps 762 mmHg 76%
    01:00 +1°C° 0 mm 2 mps 762 mmHg 79%
    02:00 +1°C° 0 mm 2 mps 762 mmHg 82%
    03:00 +1°C° 0 mm 2 mps 762 mmHg 83%
    04:00 -1°C° 0 mm 2 mps 761 mmHg 85%
    05:00 -1°C° 0 mm 2 mps 761 mmHg 87%
    06:00 +1°C° 0 mm 2 mps 761 mmHg 83%
    07:00 +1°C° 0 mm 3 mps 760 mmHg 80%
    08:00 0°C° 0 mm 4 mps 760 mmHg 76%
    09:00 +1°C° 0.1 mm 4 mps 760 mmHg 75%
    10:00 +1°C° 0.1 mm 4 mps 759 mmHg 73%
    11:00 +1°C° 0.1 mm 4 mps 759 mmHg 72%
    12:00 +2°C° 0.4 mm 5 mps 758 mmHg 72%
    13:00 +2°C° 0.4 mm 5 mps 757 mmHg 73%
    14:00 +2°C° 0.4 mm 5 mps 757 mmHg 74%
    15:00 +2°C° 0 mm 5 mps 756 mmHg 75%
    16:00 +4°C° 0 mm 4 mps 756 mmHg 77%
    17:00 +4°C° 0 mm 4 mps 755 mmHg 79%
    18:00 +4°C° 0 mm 4 mps 755 mmHg 81%
    19:00 +4°C° 0 mm 3 mps 754 mmHg 84%
    20:00 +4°C° 0 mm 3 mps 754 mmHg 86%
    21:00 +5°C° 0 mm 3 mps 754 mmHg 88%
    22:00 +5°C° 0 mm 3 mps 753 mmHg 90%
    23:00 +5°C° 0 mm 3 mps 753 mmHg 92%

    27 October, Friday

    Time Temperature Precipitation Wind Pressure Humidity
    00:00 +6°C° 0.2 mm 4 mps 752 mmHg 93%
    01:00 +6°C° 0.2 mm 4 mps 752 mmHg 94%
    02:00 +7°C° 0.2 mm 5 mps 751 mmHg 95%
    03:00 +7°C° 0.1 mm 5 mps 751 mmHg 93%
    04:00 +7°C° 0.1 mm 5 mps 751 mmHg 92%
    05:00 +7°C° 0.1 mm 5 mps 750 mmHg 91%
    06:00 +7°C° 0 mm 5 mps 750 mmHg 89%
    07:00 +7°C° 0 mm 4 mps 750 mmHg 88%
    08:00 +7°C° 0 mm 4 mps 750 mmHg 86%
    09:00 +8°C° 0 mm 4 mps 750 mmHg 81%
    10:00 +9°C° 0 mm 5 mps 750 mmHg 77%
    11:00 +10°C° 0 mm 5 mps 750 mmHg 72%
    12:00 +10°C° 0.1 mm 5 mps 749 mmHg 71%
    13:00 +10°C° 0.1 mm 5 mps 749 mmHg 70%
    14:00 +10°C° 0.1 mm 5 mps 748 mmHg 69%
    15:00 +9°C° 0.6 mm 5 mps 747 mmHg 75%
    16:00 +8°C° 0.6 mm 4 mps 746 mmHg 81%
    17:00 +8°C° 0.6 mm 4 mps 746 mmHg 88%
    18:00 +8°C° 1.2 mm 4 mps 745 mmHg 89%
    19:00 +8°C° 1.2 mm 5 mps 744 mmHg 89%
    20:00 +8°C° 1.2 mm 5 mps 743 mmHg 90%
    21:00 +9°C° 0.4 mm 5 mps 742 mmHg 90%
    22:00 +9°C° 0.4 mm 5 mps 741 mmHg 90%
    23:00 +9°C° 0.4 mm 6 mps 741 mmHg 90%
    Show more